Hourly Weather Bolshoy Izberdey

Today, 30 July, Friday

Time Temperature Precipitation Wind Pressure Humidity
00:00 +22°C° 0 mm 0 mps 744 mmHg 60%
01:00 +24°C° 0 mm 1 mps 744 mmHg 64%
02:00 +23°C° 0 mm 1 mps 744 mmHg 67%
03:00 +22°C° 0 mm 1 mps 744 mmHg 71%
04:00 +22°C° 0.1 mm 1 mps 743 mmHg 72%
05:00 +23°C° 0.1 mm 1 mps 743 mmHg 72%
06:00 +23°C° 0.1 mm 1 mps 743 mmHg 73%
07:00 +25°C° 0.2 mm 1 mps 743 mmHg 67%
08:00 +26°C° 0.2 mm 2 mps 743 mmHg 62%
09:00 +28°C° 0 mm 3 mps 743 mmHg 58%
10:00 +29°C° 0 mm 3 mps 743 mmHg 52%
11:00 +32°C° 0 mm 4 mps 743 mmHg 47%
12:00 +34°C° 0 mm 5 mps 743 mmHg 41%
13:00 +33°C° 0 mm 5 mps 742 mmHg 42%
14:00 +33°C° 0 mm 4 mps 742 mmHg 43%
15:00 +32°C° 0 mm 4 mps 742 mmHg 46%
16:00 +30°C° 0.2 mm 4 mps 741 mmHg 48%
17:00 +30°C° 0.2 mm 4 mps 741 mmHg 51%
18:00 +30°C° 0.2 mm 4 mps 741 mmHg 53%
19:00 +28°C° 0 mm 4 mps 741 mmHg 58%
20:00 +27°C° 0 mm 4 mps 741 mmHg 62%
21:00 +25°C° 0 mm 3 mps 742 mmHg 67%
22:00 +24°C° 0 mm 3 mps 742 mmHg 72%
23:00 +22°C° 0 mm 3 mps 742 mmHg 78%

Tomorrow, 31 July, Saturday

Time Temperature Precipitation Wind Pressure Humidity
00:00 +21°C° 0 mm 3 mps 743 mmHg 84%
01:00 +20°C° 0 mm 3 mps 743 mmHg 87%
02:00 +20°C° 0 mm 3 mps 743 mmHg 89%
03:00 +19°C° 0 mm 3 mps 743 mmHg 92%
04:00 +19°C° 0 mm 3 mps 743 mmHg 90%
05:00 +19°C° 0 mm 2 mps 744 mmHg 88%
06:00 +20°C° 0 mm 2 mps 744 mmHg 86%
07:00 +22°C° 0 mm 3 mps 744 mmHg 74%
08:00 +25°C° 0 mm 3 mps 744 mmHg 63%
09:00 +27°C° 0 mm 4 mps 745 mmHg 51%
10:00 +28°C° 0 mm 4 mps 745 mmHg 46%
11:00 +29°C° 0 mm 4 mps 745 mmHg 40%
12:00 +30°C° 0 mm 5 mps 745 mmHg 34%
13:00 +32°C° 0 mm 4 mps 745 mmHg 33%
14:00 +32°C° 0 mm 4 mps 745 mmHg 31%
15:00 +33°C° 0 mm 4 mps 745 mmHg 29%
16:00 +33°C° 0 mm 3 mps 745 mmHg 31%
17:00 +31°C° 0 mm 3 mps 745 mmHg 32%
18:00 +31°C° 0 mm 3 mps 745 mmHg 34%
19:00 +29°C° 0 mm 3 mps 745 mmHg 37%
20:00 +28°C° 0 mm 3 mps 745 mmHg 40%
21:00 +26°C° 0 mm 2 mps 746 mmHg 43%
22:00 +25°C° 0 mm 2 mps 746 mmHg 46%
23:00 +24°C° 0 mm 2 mps 746 mmHg 49%

Day after tomorrow, 1 August, Sunday

Time Temperature Precipitation Wind Pressure Humidity
00:00 +23°C° 0 mm 2 mps 746 mmHg 52%
01:00 +23°C° 0 mm 2 mps 747 mmHg 56%
02:00 +21°C° 0 mm 2 mps 747 mmHg 59%
03:00 +22°C° 0 mm 1 mps 747 mmHg 63%
04:00 +22°C° 0 mm 1 mps 747 mmHg 64%
05:00 +22°C° 0 mm 1 mps 748 mmHg 65%
06:00 +20°C° 0 mm 0 mps 748 mmHg 66%
07:00 +24°C° 0 mm 1 mps 748 mmHg 59%
08:00 +26°C° 0 mm 1 mps 748 mmHg 52%
09:00 +28°C° 0 mm 1 mps 748 mmHg 46%
10:00 +30°C° 0 mm 2 mps 748 mmHg 41%
11:00 +32°C° 0 mm 2 mps 748 mmHg 36%
12:00 +34°C° 0 mm 3 mps 748 mmHg 32%
13:00 +35°C° 0 mm 3 mps 748 mmHg 29%
14:00 +35°C° 0 mm 3 mps 748 mmHg 27%
15:00 +36°C° 0 mm 3 mps 747 mmHg 25%
16:00 +35°C° 0 mm 3 mps 747 mmHg 26%
17:00 +35°C° 0 mm 3 mps 747 mmHg 28%
18:00 +34°C° 0 mm 3 mps 747 mmHg 30%
19:00 +31°C° 0 mm 3 mps 747 mmHg 33%
20:00 +29°C° 0 mm 3 mps 747 mmHg 37%
21:00 +27°C° 0 mm 3 mps 747 mmHg 41%
22:00 +26°C° 0 mm 3 mps 747 mmHg 43%
23:00 +26°C° 0 mm 3 mps 747 mmHg 45%

2 August, Monday

Time Temperature Precipitation Wind Pressure Humidity
00:00 +25°C° 0 mm 3 mps 747 mmHg 47%
01:00 +24°C° 0 mm 3 mps 747 mmHg 49%
02:00 +24°C° 0 mm 3 mps 747 mmHg 52%
03:00 +24°C° 0 mm 3 mps 747 mmHg 54%
04:00 +24°C° 0 mm 3 mps 747 mmHg 57%
05:00 +24°C° 0 mm 2 mps 747 mmHg 60%
06:00 +24°C° 0 mm 2 mps 747 mmHg 62%
07:00 +26°C° 0 mm 3 mps 747 mmHg 56%
08:00 +28°C° 0 mm 3 mps 747 mmHg 50%
09:00 +31°C° 0 mm 3 mps 747 mmHg 44%
10:00 +33°C° 0 mm 4 mps 746 mmHg 39%
11:00 +35°C° 0 mm 4 mps 746 mmHg 35%
12:00 +36°C° 0 mm 4 mps 746 mmHg 30%
13:00 +37°C° 0 mm 4 mps 745 mmHg 28%
14:00 +38°C° 0 mm 4 mps 745 mmHg 25%
15:00 +38°C° 0 mm 4 mps 744 mmHg 23%
16:00 +36°C° 0 mm 4 mps 744 mmHg 29%
17:00 +34°C° 0 mm 4 mps 744 mmHg 35%
18:00 +32°C° 0 mm 4 mps 743 mmHg 41%
19:00 +30°C° 0 mm 4 mps 743 mmHg 43%
20:00 +28°C° 0 mm 4 mps 743 mmHg 46%
21:00 +27°C° 0 mm 3 mps 743 mmHg 48%
22:00 +27°C° 0 mm 4 mps 744 mmHg 50%
23:00 +27°C° 0 mm 4 mps 744 mmHg 52%

3 August, Tuesday

Time Temperature Precipitation Wind Pressure Humidity
00:00 +26°C° 0 mm 5 mps 744 mmHg 54%
01:00 +26°C° 0 mm 4 mps 744 mmHg 58%
02:00 +25°C° 0 mm 3 mps 743 mmHg 61%
03:00 +24°C° 0 mm 2 mps 743 mmHg 64%
04:00 +24°C° 0.1 mm 3 mps 744 mmHg 67%
05:00 +23°C° 0.1 mm 4 mps 744 mmHg 70%
06:00 +22°C° 0.1 mm 4 mps 744 mmHg 73%
07:00 +23°C° 0.3 mm 4 mps 744 mmHg 73%
08:00 +24°C° 0.3 mm 3 mps 744 mmHg 72%
09:00 +25°C° 0.3 mm 2 mps 744 mmHg 71%
10:00 +26°C° 0 mm 3 mps 744 mmHg 65%
11:00 +27°C° 0 mm 3 mps 744 mmHg 59%
12:00 +29°C° 0 mm 3 mps 744 mmHg 54%
13:00 +28°C° 1.3 mm 4 mps 744 mmHg 59%
14:00 +27°C° 1.3 mm 4 mps 743 mmHg 64%
15:00 +26°C° 1.3 mm 4 mps 743 mmHg 69%
16:00 +25°C° 3.9 mm 4 mps 743 mmHg 72%
17:00 +24°C° 3.9 mm 3 mps 743 mmHg 74%
18:00 +22°C° 3.9 mm 3 mps 744 mmHg 76%
19:00 +22°C° 0.2 mm 3 mps 744 mmHg 79%
20:00 +21°C° 0.2 mm 3 mps 745 mmHg 82%
21:00 +20°C° 0.2 mm 3 mps 745 mmHg 85%
22:00 +19°C° 0 mm 4 mps 745 mmHg 86%
23:00 +18°C° 0 mm 4 mps 746 mmHg 88%

4 August, Wednesday

Time Temperature Precipitation Wind Pressure Humidity
00:00 +17°C° 0 mm 5 mps 746 mmHg 89%
01:00 +17°C° 0 mm 4 mps 746 mmHg 90%
02:00 +15°C° 0 mm 4 mps 747 mmHg 90%
03:00 +16°C° 0 mm 3 mps 747 mmHg 91%
04:00 +16°C° 0 mm 3 mps 747 mmHg 90%
05:00 +16°C° 0 mm 3 mps 748 mmHg 90%
06:00 +16°C° 0 mm 3 mps 748 mmHg 89%
07:00 +17°C° 0 mm 3 mps 748 mmHg 80%
08:00 +19°C° 0 mm 3 mps 749 mmHg 71%
09:00 +21°C° 0 mm 4 mps 749 mmHg 62%
10:00 +22°C° 0 mm 4 mps 749 mmHg 56%
11:00 +25°C° 0 mm 3 mps 749 mmHg 49%
12:00 +26°C° 0 mm 3 mps 749 mmHg 43%
13:00 +27°C° 0 mm 3 mps 749 mmHg 39%
14:00 +28°C° 0 mm 3 mps 749 mmHg 36%
15:00 +28°C° 0 mm 3 mps 749 mmHg 33%
16:00 +27°C° 0 mm 3 mps 749 mmHg 36%
17:00 +27°C° 0 mm 4 mps 749 mmHg 40%
18:00 +26°C° 0 mm 5 mps 749 mmHg 44%
19:00 +23°C° 0 mm 4 mps 749 mmHg 48%
20:00 +21°C° 0 mm 3 mps 750 mmHg 53%
21:00 +20°C° 0 mm 2 mps 750 mmHg 58%
22:00 +19°C° 0 mm 2 mps 750 mmHg 59%
23:00 +19°C° 0 mm 2 mps 750 mmHg 60%
Show more

We Need Your Consent

Meteoprog and our Service Providers may store and access personal data such as cookies, device identifiers or other similar technologies on your device and process such data to personalise content and ads, as well as provide social media features and to analyse the traffic.

  • Store and/or access information on your device

    Cookies, device identifiers or other information can be stored or accessed on your device for the purposes indicated above.

  • Personalised ads and content, ad and content measurement, audience insights, and products development

    Ads and content can be personalised based on a profile. More data can be added to better personalise ads and content. Ad and content performance can be measured. Insights about the audience who saw the ads and content can be derived. Such data can be used to develop or improve user’s experience, systems and software.

By clicking ‘I Agree’ you will allow the use of indicated cookies, device identifiers, web beacons or other similar technologies. Your settings can be changed in the browser on your device.

For certain purposes, legitimate interests may be relied on, rather than consent. You can read more about this in our Privacy and Cookie Policy.